TimeCST,TemperatureF,Dew PointF,Humidity,Sea Level PressureIn,VisibilityMPH,Wind Direction,Wind SpeedMPH,Gust SpeedMPH,PrecipitationIn,Events,Conditions,WindDirDegrees,DateUTC
12:58 AM,51.3,43.9,76,30.06,10.0,SSE,10.4,-,N/A,,Partly Cloudy,160,2013-02-18 06:58:00
7:58 AM,54.1,46.8,76,29.99,10.0,SSE,13.8,-,N/A,,Overcast,160,2013-02-18 13:58:00
8:58 AM,56.3,48.2,74,29.99,10.0,SSE,13.8,-,N/A,,Overcast,160,2013-02-18 14:58:00
9:58 AM,60.1,49.8,69,29.96,10.0,South,23.0,26.5,N/A,,Mostly Cloudy,170,2013-02-18 15:58:00
10:58 AM,64.2,51.8,64,29.94,10.0,South,23.0,32.2,N/A,,Overcast,180,2013-02-18 16:58:00
11:58 AM,66.0,52.9,63,29.90,10.0,South,24.2,32.2,N/A,,Overcast,190,2013-02-18 17:58:00
12:58 PM,67.6,53.8,61,29.86,10.0,South,26.5,34.5,N/A,,Overcast,190,2013-02-18 18:58:00
1:58 PM,67.8,54.1,62,29.83,10.0,South,23.0,27.6,N/A,,Overcast,190,2013-02-18 19:58:00
2:49 PM,68.0,55.4,64,29.81,10.0,South,18.4,31.1,N/A,Rain,Light Rain,190,2013-02-18 20:49:00
2:58 PM,66.7,54.7,65,29.83,10.0,SSW,19.6,25.3,0.00,Rain,Light Rain,200,2013-02-18 20:58:00
2:59 PM,66.2,55.4,68,29.82,10.0,SSW,18.4,25.3,N/A,,Overcast,200,2013-02-18 20:59:00
3:05 PM,64.4,57.2,77,29.82,9.0,South,16.1,25.3,N/A,Rain,Light Rain,190,2013-02-18 21:05:00
3:09 PM,64.4,57.2,77,29.83,10.0,SSW,17.3,23.0,N/A,,Mostly Cloudy,200,2013-02-18 21:09:00
3:11 PM,62.6,59.0,88,29.82,10.0,SSW,16.1,23.0,N/A,Rain,Light Rain,200,2013-02-18 21:11:00
3:45 PM,62.6,60.8,94,29.82,10.0,South,15.0,-,N/A,,Overcast,190,2013-02-18 21:45:00
3:51 PM,62.6,60.8,94,29.82,10.0,South,9.2,-,N/A,Rain,Light Rain,190,2013-02-18 21:51:00
3:58 PM,62.8,60.8,93,29.83,8.0,SSW,10.4,-,0.07,Rain,Light Rain,210,2013-02-18 21:58:00
4:04 PM,62.6,60.8,94,29.81,10.0,South,17.3,21.9,N/A,,Mostly Cloudy,180,2013-02-18 22:04:00
4:23 PM,62.6,60.8,94,29.81,8.0,South,17.3,23.0,N/A,Rain-Thunderstorm,Light Thunderstorms and Rain,180,2013-02-18 22:23:00
4:58 PM,64.2,60.1,86,29.81,10.0,South,15.0,23.0,0.01,,Scattered Clouds,190,2013-02-18 22:58:00
5:58 PM,62.4,60.3,93,29.81,10.0,South,13.8,-,N/A,,Scattered Clouds,180,2013-02-18 23:58:00
6:37 PM,62.6,60.8,94,29.83,10.0,South,10.4,-,N/A,Rain,Light Rain,190,2013-02-19 00:37:00
6:58 PM,62.4,61.3,96,29.83,6.0,South,17.3,-,0.04,Rain,Light Rain,190,2013-02-19 00:58:00
7:26 PM,62.6,60.8,94,29.86,10.0,SSW,6.9,-,N/A,Rain,Light Rain,210,2013-02-19 01:26:00
7:29 PM,62.6,60.8,94,29.86,10.0,SSW,8.1,-,N/A,,Overcast,210,2013-02-19 01:29:00
7:58 PM,62.4,61.2,96,29.90,10.0,West,6.9,-,0.00,,Mostly Cloudy,270,2013-02-19 01:58:00
8:58 PM,59.4,46.0,61,29.94,10.0,NW,18.4,-,N/A,,Scattered Clouds,320,2013-02-19 02:58:00
9:58 PM,56.3,40.6,56,29.99,10.0,NNW,18.4,-,N/A,,Clear,330,2013-02-19 03:58:00
10:58 PM,52.3,40.6,64,30.04,10.0,NNW,9.2,-,N/A,,Clear,340,2013-02-19 04:58:00
11:58 PM,50.0,39.0,66,30.08,10.0,North,10.4,-,N/A,,Clear,350,2013-02-19 05:58:00